Epoch 2021 July 5.0 TT = JDT 2459400.5
T 2022 Aug. 12.03694 TT Rudenko
q 1.6246957 (2000.0) P Q
n 0.14564360 Peri. 162.27698 -0.68479603 -0.72610608
a 3.5777373 Node 330.84833 +0.65228766 -0.57290982
e 0.5458874 Incl. 7.29350 +0.32492338 -0.38018982
P 6.77
From 424 observations 2008 Dec. 1-2021 Oct. 14, mean residual 0".6.
光度変化
H = 18.0 G = 0.15 [ ,-85] ( 〜2022年 5月19日)
m1 = 12.5 + 5 logΔ + 25.0 log r(t - 35) [-85,192] (2022年 5月19日〜2023年 2月20日)
H = 18.0 G = 0.15 [192, ] (2023年 2月20日〜 )